Time,TemperatureF,DewpointF,PressureIn,WindDirection,WindDirectionDegrees,WindSpeedMPH,WindSpeedGustMPH,Humidity,HourlyPrecipIn,Conditions,Clouds,dailyrainin,SoftwareType,DateUTC
2013-02-20 00:00:00,58.7,30.4,30.14,SE,127,2.0,2.0,34,0.00,,,0.00,Wunderground v.1.15,2013-02-20 06:00:00,
2013-02-20 00:10:00,58.7,30.4,30.14,East,92,1.0,1.0,34,0.00,,,0.00,Wunderground v.1.15,2013-02-20 06:10:00,
2013-02-20 00:24:00,58.5,31.6,30.13,SE,139,0.0,0.0,36,0.00,,,0.00,Wunderground v.1.15,2013-02-20 06:24:00,
2013-02-20 00:30:00,58.3,30.7,30.13,WNW,298,0.0,0.0,35,0.00,,,0.00,Wunderground v.1.15,2013-02-20 06:30:00,
2013-02-20 00:40:00,58.2,29.9,30.12,ESE,117,1.0,1.0,34,0.00,,,0.00,Wunderground v.1.15,2013-02-20 06:40:00,
2013-02-20 00:45:00,58.1,30.6,30.12,East,96,1.0,1.0,35,0.00,,,0.00,Wunderground v.1.15,2013-02-20 06:45:00,
2013-02-20 00:54:00,58.0,31.2,30.11,East,99,2.0,3.0,36,0.00,,,0.00,Wunderground v.1.15,2013-02-20 06:54:00,
2013-02-20 01:00:00,57.8,31.7,30.10,ESE,103,2.0,2.0,37,0.00,,,0.00,Wunderground v.1.15,2013-02-20 07:00:00,
2013-02-20 01:09:00,57.6,32.8,30.10,East,101,1.0,1.0,39,0.00,,,0.00,Wunderground v.1.15,2013-02-20 07:09:00,
2013-02-20 01:15:00,57.4,33.3,30.11,ESE,104,2.0,2.0,40,0.00,,,0.00,Wunderground v.1.15,2013-02-20 07:15:00,
2013-02-20 01:25:00,57.2,34.3,30.12,SE,146,2.0,3.0,42,0.00,,,0.00,Wunderground v.1.15,2013-02-20 07:25:00,
2013-02-20 01:35:00,57.0,35.3,30.13,ESE,121,1.0,1.0,44,0.00,,,0.00,Wunderground v.1.15,2013-02-20 07:35:00,
2013-02-20 01:44:00,56.8,35.7,30.11,East,82,1.0,1.0,45,0.00,,,0.00,Wunderground v.1.15,2013-02-20 07:44:00,
2013-02-20 01:50:00,56.7,36.1,30.10,ENE,71,1.0,2.0,46,0.00,,,0.00,Wunderground v.1.15,2013-02-20 07:50:00,
2013-02-20 02:00:00,56.5,36.5,30.09,East,81,1.0,1.0,47,0.00,,,0.00,Wunderground v.1.15,2013-02-20 08:00:00,
2013-02-20 02:05:00,56.5,37.6,30.08,East,80,1.0,1.0,49,0.00,,,0.00,Wunderground v.1.15,2013-02-20 08:05:00,
2013-02-20 02:15:00,56.3,37.9,30.09,West,264,1.0,1.0,50,0.00,,,0.00,Wunderground v.1.15,2013-02-20 08:15:00,
2013-02-20 02:24:00,56.2,38.3,30.09,SSE,163,1.0,4.0,51,0.00,,,0.00,Wunderground v.1.15,2013-02-20 08:24:00,
2013-02-20 02:30:00,56.1,39.2,30.09,SE,145,2.0,2.0,53,0.00,,,0.00,Wunderground v.1.15,2013-02-20 08:30:00,
2013-02-20 02:40:00,56.1,40.1,30.09,SSE,160,1.0,2.0,55,0.00,,,0.00,Wunderground v.1.15,2013-02-20 08:40:00,
2013-02-20 02:50:00,56.0,41.4,30.08,SE,130,2.0,2.0,58,0.00,,,0.00,Wunderground v.1.15,2013-02-20 08:50:00,
2013-02-20 03:00:00,56.0,42.3,30.08,ESE,105,2.0,2.0,60,0.00,,,0.00,Wunderground v.1.15,2013-02-20 09:00:00,
2013-02-20 03:10:00,56.0,42.7,30.08,ESE,103,1.0,1.0,61,0.00,,,0.00,Wunderground v.1.15,2013-02-20 09:10:00,
2013-02-20 03:19:00,56.0,43.6,30.08,ENE,78,2.0,2.0,63,0.00,,,0.00,Wunderground v.1.15,2013-02-20 09:19:00,
2013-02-20 03:25:00,56.0,43.6,30.07,ESE,104,2.0,2.0,63,0.00,,,0.00,Wunderground v.1.15,2013-02-20 09:25:00,
2013-02-20 03:35:00,55.8,43.8,30.09,SE,141,1.0,1.0,64,0.00,,,0.00,Wunderground v.1.15,2013-02-20 09:35:00,
2013-02-20 03:45:00,55.8,44.2,30.08,ENE,65,1.0,1.0,65,0.00,,,0.00,Wunderground v.1.15,2013-02-20 09:45:00,
2013-02-20 03:55:00,55.7,44.5,30.05,East,98,2.0,2.0,66,0.00,,,0.00,Wunderground v.1.15,2013-02-20 09:55:00,
2013-02-20 04:05:00,55.5,45.5,30.06,East,84,2.0,2.0,69,0.00,,,0.00,Wunderground v.1.15,2013-02-20 10:05:00,
2013-02-20 04:14:00,55.4,45.4,30.06,SE,145,1.0,2.0,69,0.00,,,0.00,Wunderground v.1.15,2013-02-20 10:14:00,
2013-02-20 04:20:00,55.3,45.7,30.07,ESE,117,2.0,2.0,70,0.00,,,0.00,Wunderground v.1.15,2013-02-20 10:20:00,
2013-02-20 04:29:00,55.1,45.9,30.07,East,83,1.0,2.0,71,0.00,,,0.00,Wunderground v.1.15,2013-02-20 10:29:00,
2013-02-20 04:35:00,55.0,45.8,30.06,SE,144,2.0,2.0,71,0.00,,,0.00,Wunderground v.1.15,2013-02-20 10:35:00,
2013-02-20 04:45:00,54.9,46.0,30.05,East,86,2.0,2.0,72,0.00,,,0.00,Wunderground v.1.15,2013-02-20 10:45:00,
2013-02-20 04:55:00,54.8,45.6,30.05,East,89,1.0,3.0,71,0.00,,,0.00,Wunderground v.1.15,2013-02-20 10:55:00,
2013-02-20 05:04:00,54.7,45.8,30.05,SSE,159,1.0,2.0,72,0.00,,,0.00,Wunderground v.1.15,2013-02-20 11:04:00,
2013-02-20 05:09:00,54.7,45.8,30.06,ESE,110,1.0,1.0,72,0.00,,,0.00,Wunderground v.1.15,2013-02-20 11:09:00,
2013-02-20 05:15:00,54.6,45.8,30.05,ENE,75,0.0,1.0,72,0.00,,,0.00,Wunderground v.1.15,2013-02-20 11:15:00,
2013-02-20 05:24:00,54.5,45.7,30.06,ESE,102,1.0,1.0,72,0.00,,,0.00,Wunderground v.1.15,2013-02-20 11:24:00,
2013-02-20 05:30:00,54.4,45.6,30.05,ESE,107,1.0,1.0,72,0.00,,,0.00,Wunderground v.1.15,2013-02-20 11:30:00,
2013-02-20 05:40:00,54.2,45.0,30.05,East,88,1.0,1.0,71,0.00,,,0.00,Wunderground v.1.15,2013-02-20 11:40:00,
2013-02-20 05:50:00,54.1,44.9,30.04,SE,131,2.0,2.0,71,0.00,,,0.00,Wunderground v.1.15,2013-02-20 11:50:00,
2013-02-20 06:00:00,54.0,44.8,30.03,SE,125,2.0,2.0,71,0.00,,,0.00,Wunderground v.1.15,2013-02-20 12:00:00,
2013-02-20 06:05:00,54.0,44.4,30.02,SE,143,2.0,2.0,70,0.00,,,0.00,Wunderground v.1.15,2013-02-20 12:05:00,
2013-02-20 06:15:00,53.8,44.2,30.01,ENE,58,2.0,2.0,70,0.00,,,0.00,Wunderground v.1.15,2013-02-20 12:15:00,
2013-02-20 06:25:00,53.7,44.5,30.00,East,86,2.0,2.0,71,0.00,,,0.00,Wunderground v.1.15,2013-02-20 12:25:00,
2013-02-20 06:35:00,53.6,44.4,30.00,SE,137,1.0,2.0,71,0.00,,,0.00,Wunderground v.1.15,2013-02-20 12:35:00,
2013-02-20 06:45:00,53.7,44.5,30.00,SSW,203,1.0,2.0,71,0.00,,,0.00,Wunderground v.1.15,2013-02-20 12:45:00,
2013-02-20 06:54:00,53.7,44.9,29.99,NNW,334,1.0,1.0,72,0.00,,,0.00,Wunderground v.1.15,2013-02-20 12:54:00,
2013-02-20 07:00:00,53.7,44.9,29.98,ESE,108,1.0,1.0,72,0.00,,,0.00,Wunderground v.1.15,2013-02-20 13:00:00,
2013-02-20 07:09:00,53.8,45.3,29.98,SSE,162,1.0,1.0,73,0.00,,,0.00,Wunderground v.1.15,2013-02-20 13:09:00,
2013-02-20 07:15:00,53.8,45.3,29.98,NW,321,1.0,2.0,73,0.00,,,0.00,Wunderground v.1.15,2013-02-20 13:15:00,
2013-02-20 07:25:00,53.8,45.7,29.97,ENE,65,1.0,2.0,74,0.00,,,0.00,Wunderground v.1.15,2013-02-20 13:25:00,
2013-02-20 07:35:00,53.8,46.1,29.97,ESE,115,2.0,3.0,75,0.00,,,0.00,Wunderground v.1.15,2013-02-20 13:35:00,
2013-02-20 07:45:00,53.7,46.0,29.98,ESE,107,2.0,2.0,75,0.00,,,0.00,Wunderground v.1.15,2013-02-20 13:45:00,
2013-02-20 07:55:00,53.9,46.5,29.99,ENE,78,1.0,2.0,76,0.00,,,0.00,Wunderground v.1.15,2013-02-20 13:55:00,
2013-02-20 08:04:00,54.1,46.7,29.99,ENE,63,1.0,1.0,76,0.00,,,0.00,Wunderground v.1.15,2013-02-20 14:04:00,
2013-02-20 08:15:00,54.3,47.2,30.00,East,81,1.0,2.0,77,0.00,,,0.00,Wunderground v.1.15,2013-02-20 14:15:00,
2013-02-20 08:24:00,54.5,47.4,29.99,East,84,1.0,2.0,77,0.00,,,0.00,Wunderground v.1.15,2013-02-20 14:24:00,
2013-02-20 08:30:00,54.7,48.0,30.00,East,100,1.0,1.0,78,0.00,,,0.00,Wunderground v.1.15,2013-02-20 14:30:00,
2013-02-20 08:39:00,55.0,48.6,30.01,NNE,32,0.0,0.0,79,0.00,,,0.00,Wunderground v.1.15,2013-02-20 14:39:00,
2013-02-20 08:45:00,55.2,48.8,30.01,ESE,110,0.0,0.0,79,0.00,,,0.00,Wunderground v.1.15,2013-02-20 14:45:00,
2013-02-20 08:55:00,55.4,49.0,30.02,ENE,66,1.0,1.0,79,0.00,,,0.00,Wunderground v.1.15,2013-02-20 14:55:00,
2013-02-20 09:05:00,55.6,49.2,30.02,NNE,18,0.0,2.0,79,0.00,,,0.00,Wunderground v.1.15,2013-02-20 15:05:00,
2013-02-20 09:14:00,55.7,49.3,30.02,NE,55,1.0,1.0,79,0.00,,,0.00,Wunderground v.1.15,2013-02-20 15:14:00,
2013-02-20 09:20:00,55.8,49.7,30.01,NE,53,1.0,1.0,80,0.00,,,0.00,Wunderground v.1.15,2013-02-20 15:20:00,
2013-02-20 09:30:00,55.8,49.7,30.01,ENE,75,1.0,1.0,80,0.00,,,0.00,Wunderground v.1.15,2013-02-20 15:30:00,
2013-02-20 09:40:00,56.0,49.9,30.03,ENE,72,1.0,1.0,80,0.00,,,0.00,Wunderground v.1.15,2013-02-20 15:40:00,
2013-02-20 09:50:00,56.0,50.3,30.03,ENE,77,1.0,1.0,81,0.00,,,0.00,Wunderground v.1.15,2013-02-20 15:50:00,
2013-02-20 10:00:00,55.9,51.1,30.03,East,86,1.0,1.0,84,0.00,,,0.00,Wunderground v.1.15,2013-02-20 16:00:00,
2013-02-20 10:09:00,55.6,51.8,30.03,WSW,248,1.0,1.0,87,0.00,,,0.00,Wunderground v.1.15,2013-02-20 16:09:00,
2013-02-20 10:15:00,55.6,52.1,30.03,WSW,248,1.0,1.0,88,0.00,,,0.00,Wunderground v.1.15,2013-02-20 16:15:00,
2013-02-20 10:24:00,55.5,52.6,30.01,East,84,1.0,3.0,90,0.08,,,0.02,Wunderground v.1.15,2013-02-20 16:24:00,
2013-02-20 10:30:00,55.4,52.8,30.01,East,79,2.0,2.0,91,0.08,,,0.02,Wunderground v.1.15,2013-02-20 16:30:00,
2013-02-20 10:39:00,55.6,53.0,30.00,NNE,14,1.0,1.0,91,0.04,,,0.02,Wunderground v.1.15,2013-02-20 16:39:00,
2013-02-20 10:50:00,56.0,53.7,30.00,ENE,75,0.0,0.0,92,0.00,,,0.02,Wunderground v.1.15,2013-02-20 16:50:00,
2013-02-20 10:59:00,56.2,53.9,29.99,ESE,117,1.0,1.0,92,0.00,,,0.02,Wunderground v.1.15,2013-02-20 16:59:00,
2013-02-20 11:10:00,56.9,54.6,29.98,SSW,198,1.0,1.0,92,0.00,,,0.02,Wunderground v.1.15,2013-02-20 17:10:00,
2013-02-20 11:20:00,57.3,54.7,29.98,East,79,1.0,1.0,91,0.00,,,0.02,Wunderground v.1.15,2013-02-20 17:20:00,
2013-02-20 11:30:00,57.4,54.8,29.97,SSE,156,1.0,1.0,91,0.00,,,0.02,Wunderground v.1.15,2013-02-20 17:30:00,
2013-02-20 11:39:00,57.6,55.0,29.96,East,101,1.0,2.0,91,0.00,,,0.02,Wunderground v.1.15,2013-02-20 17:39:00,
2013-02-20 11:45:00,57.8,55.2,29.96,East,85,1.0,2.0,91,0.00,,,0.02,Wunderground v.1.15,2013-02-20 17:45:00,
2013-02-20 11:54:00,58.3,55.7,29.95,East,93,1.0,2.0,91,0.00,,,0.02,Wunderground v.1.15,2013-02-20 17:54:00,
2013-02-20 12:00:00,58.5,55.9,29.95,ESE,116,1.0,1.0,91,0.00,,,0.02,Wunderground v.1.15,2013-02-20 18:00:00,
2013-02-20 12:10:00,58.8,56.2,29.94,ESE,115,1.0,1.0,91,0.00,,,0.02,Wunderground v.1.15,2013-02-20 18:10:00,
2013-02-20 12:20:00,59.0,56.4,29.94,East,86,1.0,1.0,91,0.00,,,0.02,Wunderground v.1.15,2013-02-20 18:20:00,
2013-02-20 12:29:00,59.2,56.6,29.93,ENE,77,1.0,2.0,91,0.00,,,0.02,Wunderground v.1.15,2013-02-20 18:29:00,
2013-02-20 12:35:00,59.3,56.7,29.92,East,89,1.0,2.0,91,0.00,,,0.02,Wunderground v.1.15,2013-02-20 18:35:00,
2013-02-20 12:45:00,59.7,57.1,29.92,East,83,1.0,1.0,91,0.00,,,0.02,Wunderground v.1.15,2013-02-20 18:45:00,
2013-02-20 12:55:00,59.9,57.3,29.91,ENE,68,1.0,2.0,91,0.00,,,0.02,Wunderground v.1.15,2013-02-20 18:55:00,
2013-02-20 13:04:00,60.2,57.3,29.90,NE,46,1.0,2.0,90,0.00,,,0.02,Wunderground v.1.15,2013-02-20 19:04:00,
2013-02-20 13:10:00,60.3,57.4,29.90,ESE,107,2.0,2.0,90,0.00,,,0.02,Wunderground v.1.15,2013-02-20 19:10:00,
2013-02-20 13:19:00,60.5,57.6,29.89,ENE,58,2.0,2.0,90,0.00,,,0.02,Wunderground v.1.15,2013-02-20 19:19:00,
2013-02-20 13:25:00,60.7,58.1,29.89,ESE,110,1.0,2.0,91,0.00,,,0.02,Wunderground v.1.15,2013-02-20 19:25:00,
2013-02-20 13:34:00,61.1,58.1,29.87,South,169,1.0,2.0,90,0.00,,,0.02,Wunderground v.1.15,2013-02-20 19:34:00,
2013-02-20 13:40:00,61.3,58.3,29.87,SE,127,1.0,2.0,90,0.00,,,0.02,Wunderground v.1.15,2013-02-20 19:40:00,
2013-02-20 13:50:00,61.6,58.6,29.86,East,81,1.0,1.0,90,0.00,,,0.02,Wunderground v.1.15,2013-02-20 19:50:00,
2013-02-20 14:00:00,61.9,59.2,29.85,SE,131,1.0,1.0,91,0.00,,,0.02,Wunderground v.1.15,2013-02-20 20:00:00,
2013-02-20 14:09:00,62.1,59.4,29.85,East,92,1.0,1.0,91,0.00,,,0.02,Wunderground v.1.15,2013-02-20 20:09:00,
2013-02-20 14:15:00,62.2,59.5,29.84,SE,134,1.0,1.0,91,0.00,,,0.02,Wunderground v.1.15,2013-02-20 20:15:00,
2013-02-20 14:24:00,62.4,59.7,29.84,South,172,1.0,1.0,91,0.00,,,0.02,Wunderground v.1.15,2013-02-20 20:24:00,
2013-02-20 14:30:00,62.5,59.8,29.83,East,81,1.0,2.0,91,0.00,,,0.02,Wunderground v.1.15,2013-02-20 20:30:00,
2013-02-20 14:40:00,62.7,60.0,29.83,East,79,1.0,1.0,91,0.00,,,0.02,Wunderground v.1.15,2013-02-20 20:40:00,
2013-02-20 14:50:00,62.7,60.0,29.83,North,358,1.0,1.0,91,0.00,,,0.02,Wunderground v.1.15,2013-02-20 20:50:00,
2013-02-20 15:00:00,62.7,60.0,29.82,East,97,1.0,1.0,91,0.00,,,0.02,Wunderground v.1.15,2013-02-20 21:00:00,
2013-02-20 15:10:00,62.8,60.4,29.82,East,99,0.0,0.0,92,0.00,,,0.02,Wunderground v.1.15,2013-02-20 21:10:00,
2013-02-20 15:19:00,62.9,60.5,29.81,SSE,148,1.0,2.0,92,0.00,,,0.02,Wunderground v.1.15,2013-02-20 21:19:00,
2013-02-20 15:25:00,63.0,60.6,29.81,North,9,1.0,2.0,92,0.00,,,0.02,Wunderground v.1.15,2013-02-20 21:25:00,
2013-02-20 15:34:00,63.0,60.6,29.81,ESE,122,1.0,1.0,92,0.00,,,0.02,Wunderground v.1.15,2013-02-20 21:34:00,
2013-02-20 15:40:00,63.0,60.6,29.81,East,89,1.0,2.0,92,0.00,,,0.02,Wunderground v.1.15,2013-02-20 21:40:00,
2013-02-20 15:50:00,63.0,60.6,29.81,NW,306,0.0,0.0,92,0.00,,,0.02,Wunderground v.1.15,2013-02-20 21:50:00,
2013-02-20 16:00:00,63.0,60.9,29.80,SW,226,0.0,0.0,93,0.00,,,0.02,Wunderground v.1.15,2013-02-20 22:00:00,
2013-02-20 16:10:00,63.1,61.0,29.80,ENE,70,0.0,0.0,93,0.00,,,0.02,Wunderground v.1.15,2013-02-20 22:10:00,
2013-02-20 16:20:00,63.2,61.1,29.80,East,92,1.0,1.0,93,0.00,,,0.02,Wunderground v.1.15,2013-02-20 22:20:00,
2013-02-20 16:30:00,63.4,61.3,29.80,East,81,2.0,2.0,93,0.00,,,0.02,Wunderground v.1.15,2013-02-20 22:30:00,
2013-02-20 16:39:00,63.6,61.8,29.79,ESE,103,2.0,2.0,94,0.00,,,0.02,Wunderground v.1.15,2013-02-20 22:39:00,
2013-02-20 16:45:00,63.7,61.9,29.78,East,80,1.0,2.0,94,0.00,,,0.02,Wunderground v.1.15,2013-02-20 22:45:00,
2013-02-20 16:54:00,63.9,62.1,29.78,East,82,1.0,2.0,94,0.00,,,0.02,Wunderground v.1.15,2013-02-20 22:54:00,
2013-02-20 17:05:00,64.1,62.3,29.78,East,86,1.0,1.0,94,0.00,,,0.02,Wunderground v.1.15,2013-02-20 23:05:00,
2013-02-20 17:14:00,64.2,62.4,29.77,East,98,1.0,2.0,94,0.00,,,0.02,Wunderground v.1.15,2013-02-20 23:14:00,
2013-02-20 17:20:00,64.2,62.4,29.77,ESE,110,1.0,1.0,94,0.00,,,0.02,Wunderground v.1.15,2013-02-20 23:20:00,
2013-02-20 17:29:00,64.2,62.4,29.76,SE,126,1.0,1.0,94,0.00,,,0.02,Wunderground v.1.15,2013-02-20 23:29:00,
2013-02-20 17:35:00,64.1,62.3,29.77,South,170,1.0,1.0,94,0.00,,,0.02,Wunderground v.1.15,2013-02-20 23:35:00,
2013-02-20 17:45:00,63.8,62.0,29.76,East,91,1.0,2.0,94,0.00,,,0.02,Wunderground v.1.15,2013-02-20 23:45:00,
2013-02-20 17:55:00,63.5,61.7,29.76,SSE,153,1.0,1.0,94,0.00,,,0.02,Wunderground v.1.15,2013-02-20 23:55:00,
2013-02-20 18:05:00,63.5,61.7,29.76,East,92,1.0,2.0,94,0.00,,,0.02,Wunderground v.1.15,2013-02-21 00:05:00,
2013-02-20 18:15:00,63.4,61.9,29.76,NNE,20,1.0,2.0,95,0.00,,,0.02,Wunderground v.1.15,2013-02-21 00:15:00,
2013-02-20 18:24:00,63.3,61.8,29.76,ENE,64,1.0,2.0,95,0.00,,,0.02,Wunderground v.1.15,2013-02-21 00:24:00,
2013-02-20 18:30:00,63.2,61.7,29.76,East,89,1.0,1.0,95,0.00,,,0.02,Wunderground v.1.15,2013-02-21 00:30:00,
2013-02-20 18:40:00,63.1,61.6,29.76,East,79,1.0,1.0,95,0.00,,,0.02,Wunderground v.1.15,2013-02-21 00:40:00,
2013-02-20 18:50:00,63.0,61.5,29.76,East,89,1.0,1.0,95,0.00,,,0.02,Wunderground v.1.15,2013-02-21 00:50:00,
2013-02-20 18:59:00,63.1,61.6,29.76,East,93,1.0,2.0,95,0.00,,,0.02,Wunderground v.1.15,2013-02-21 00:59:00,
2013-02-20 19:05:00,63.3,62.1,29.75,ESE,103,1.0,2.0,96,0.00,,,0.02,Wunderground v.1.15,2013-02-21 01:05:00,
2013-02-20 19:15:00,63.5,62.3,29.75,East,89,1.0,1.0,96,0.00,,,0.02,Wunderground v.1.15,2013-02-21 01:15:00,
2013-02-20 19:20:00,63.5,62.3,29.75,East,93,1.0,1.0,96,0.00,,,0.02,Wunderground v.1.15,2013-02-21 01:20:00,
2013-02-20 19:30:00,63.6,62.4,29.75,East,86,1.0,1.0,96,0.00,,,0.02,Wunderground v.1.15,2013-02-21 01:30:00,
2013-02-20 19:40:00,63.6,62.4,29.75,East,82,1.0,1.0,96,0.00,,,0.02,Wunderground v.1.15,2013-02-21 01:40:00,
2013-02-20 19:50:00,63.6,62.4,29.75,ESE,104,1.0,2.0,96,0.00,,,0.02,Wunderground v.1.15,2013-02-21 01:50:00,
2013-02-20 20:00:00,63.8,62.6,29.74,East,79,1.0,1.0,96,0.00,,,0.02,Wunderground v.1.15,2013-02-21 02:00:00,
2013-02-20 20:09:00,63.9,62.7,29.74,SW,217,0.0,0.0,96,0.00,,,0.02,Wunderground v.1.15,2013-02-21 02:09:00,
2013-02-20 20:15:00,64.0,62.8,29.74,East,93,1.0,1.0,96,0.00,,,0.02,Wunderground v.1.15,2013-02-21 02:15:00,
2013-02-20 20:24:00,64.3,63.4,29.74,SSE,165,1.0,2.0,97,0.00,,,0.02,Wunderground v.1.15,2013-02-21 02:24:00,
2013-02-20 20:30:00,64.5,63.3,29.73,ESE,117,1.0,2.0,96,0.00,,,0.02,Wunderground v.1.15,2013-02-21 02:30:00,
2013-02-20 20:40:00,64.8,63.9,29.73,ESE,122,1.0,2.0,97,0.00,,,0.02,Wunderground v.1.15,2013-02-21 02:40:00,
2013-02-20 20:50:00,65.0,64.1,29.72,ESE,110,1.0,1.0,97,0.00,,,0.02,Wunderground v.1.15,2013-02-21 02:50:00,
2013-02-20 20:59:00,65.2,64.3,29.72,SSE,148,1.0,1.0,97,0.00,,,0.02,Wunderground v.1.15,2013-02-21 02:59:00,
2013-02-20 21:10:00,65.5,64.6,29.72,ESE,108,1.0,1.0,97,0.00,,,0.02,Wunderground v.1.15,2013-02-21 03:10:00,
2013-02-20 21:19:00,65.8,64.9,29.73,SE,137,1.0,1.0,97,0.00,,,0.02,Wunderground v.1.15,2013-02-21 03:19:00,
2013-02-20 21:25:00,66.0,65.1,29.73,East,87,1.0,1.0,97,0.00,,,0.02,Wunderground v.1.15,2013-02-21 03:25:00,
2013-02-20 21:34:00,66.4,65.5,29.72,SE,127,1.0,1.0,97,0.00,,,0.02,Wunderground v.1.15,2013-02-21 03:34:00,
2013-02-20 21:45:00,67.1,65.9,29.72,ESE,115,2.0,2.0,96,0.00,,,0.02,Wunderground v.1.15,2013-02-21 03:45:00,
2013-02-20 21:54:00,67.6,65.8,29.72,SE,134,2.0,3.0,94,0.00,,,0.02,Wunderground v.1.15,2013-02-21 03:54:00,
2013-02-20 22:05:00,67.9,65.8,29.72,ESE,108,2.0,2.0,93,0.00,,,0.02,Wunderground v.1.15,2013-02-21 04:05:00,
2013-02-20 22:14:00,68.1,66.0,29.71,SSE,147,2.0,3.0,93,0.00,,,0.02,Wunderground v.1.15,2013-02-21 04:14:00,
2013-02-20 22:20:00,68.1,66.0,29.71,ESE,114,1.0,1.0,93,0.00,,,0.02,Wunderground v.1.15,2013-02-21 04:20:00,
2013-02-20 22:29:00,68.3,66.2,29.71,ESE,105,2.0,2.0,93,0.00,,,0.02,Wunderground v.1.15,2013-02-21 04:29:00,
2013-02-20 22:35:00,68.3,66.2,29.70,SSW,203,2.0,2.0,93,0.00,,,0.02,Wunderground v.1.15,2013-02-21 04:35:00,
2013-02-20 22:45:00,68.3,66.2,29.70,WNW,288,2.0,2.0,93,0.00,,,0.02,Wunderground v.1.15,2013-02-21 04:45:00,
2013-02-20 22:54:00,68.3,66.2,29.70,East,81,1.0,2.0,93,0.00,,,0.02,Wunderground v.1.15,2013-02-21 04:54:00,
2013-02-20 23:00:00,68.4,66.0,29.70,ESE,105,2.0,3.0,92,0.00,,,0.02,Wunderground v.1.15,2013-02-21 05:00:00,
2013-02-20 23:05:00,68.5,66.1,29.70,ESE,115,2.0,3.0,92,0.00,,,0.02,Wunderground v.1.15,2013-02-21 05:05:00,
2013-02-20 23:14:00,68.5,66.1,29.70,SW,214,2.0,2.0,92,0.00,,,0.02,Wunderground v.1.15,2013-02-21 05:14:00,
2013-02-20 23:20:00,68.5,66.1,29.69,ENE,77,2.0,2.0,92,0.00,,,0.02,Wunderground v.1.15,2013-02-21 05:20:00,
2013-02-20 23:29:00,68.6,66.2,29.69,ESE,122,2.0,2.0,92,0.00,,,0.02,Wunderground v.1.15,2013-02-21 05:29:00,
2013-02-20 23:35:00,68.5,66.1,29.68,SE,129,2.0,3.0,92,0.00,,,0.02,Wunderground v.1.15,2013-02-21 05:35:00,
2013-02-20 23:44:00,68.4,66.3,29.68,SE,136,2.0,4.0,93,0.00,,,0.02,Wunderground v.1.15,2013-02-21 05:44:00,
2013-02-20 23:50:00,68.3,66.2,29.68,East,82,2.0,2.0,93,0.00,,,0.02,Wunderground v.1.15,2013-02-21 05:50:00,
2013-02-20 23:55:00,68.3,66.2,29.68,SSE,148,2.0,2.0,93,0.00,,,0.02,Wunderground v.1.15,2013-02-21 05:55:00,